Regional Weather Roundup
Issued by NWS

Home | Current Version | Previous Version | Text Only | Print | Product List | Glossary Off
Versions: 1 2 3 4 5 6 7 8 9 10 11 12 13 14 15 16 17 18 19 20 21 22 23 24 25 26 27 28 29 30 31 32 33 34 35 36 37 38 39 40 41 42 43 44 45 46 47 48 49 50

000
ASUS43 KLOT 202108
RWRIL

ILLINOIS REGIONAL WEATHER ROUNDUP
NATIONAL WEATHER SERVICE CHICAGO/ROMEOVILLE IL
300 PM CST TUE FEB 20 2018

NOTE: "FAIR" INDICATES FEW OR NO CLOUDS BELOW 12,000 FEET WITH NO
SIGNIFICANT WEATHER AND/OR OBSTRUCTIONS TO VISIBILITY.

* THESE STATIONS ARE NOT UNDER NWS QUALITY CONTROL. THEY ALSO MAY NOT
  REPORT WEATHER SUCH AS PRECIPITATION OR FOG.

ILZ001-002-007-009-015-016-024-202200-
NORTHWEST ILLINOIS

CITY           SKY/WX    TMP DP  RH WIND       PRES   REMARKS
MOLINE         CLOUDY    35  33  92 NW14      29.97R WCI  26
STERLING*        N/A    N/A N/A N/A MISG        N/A
SAVANNA*       CLOUDY    33  32  94 NW8       29.93R WCI  27
$$

ILZ003-004-008-010-011-017-018-202200-
NORTH CENTRAL ILLINOIS

CITY           SKY/WX    TMP DP  RH WIND       PRES   REMARKS
ROCKFORD       LGT RAIN  36  34  92 NW8       29.89R WCI  30
FREEPORT*      LGT RAIN  33  33 100 W10       29.91R WCI  25
ROCHELLE*      RAIN      37  37 100 W8        29.91R WCI  30
DE KALB*       RAIN      41  41  99 W8        29.88R
PERU*          LGT RAIN  38  37  94 W12       29.94R WCI  31
$$

ILZ005-006-012>014-019>023-202200-
NORTHEAST ILLINOIS

CITY           SKY/WX    TMP DP  RH WIND       PRES   REMARKS
CHICAGO-OHARE  LGT RAIN  54  52  93 W6        29.87R
CHICAGO-MIDWAY LGT RAIN  56  55  97 W8        29.88S
AURORA         LGT RAIN  47  46  97 W5        29.88S FOG
LANSING*       RAIN      55  55 100 W15       29.91R
JOLIET*        RAIN      52  52  99 SW3       29.90R
WAUKEGAN       LGT RAIN  51  50  96 W7        29.84R FOG
DUPAGE AIRPORT RAIN      49  49 100 SW5       29.88R FOG
KANKAKEE*      RAIN      54  53  97 W10       29.95R
WHEELING       LGT RAIN  55  53  93 W9        29.87R
MORRIS*        RAIN      49  48  96 W7        29.90R
ROMEOVILLE*    RAIN      51  51  98 W5        29.89R
NORTHERLY ISL    N/A     55  52  89 SW5         N/A
$$

LMZ740>746-202200-
SOUTHERN LAKE MICHIGAN

STATION/POSITION SKY/WX   TEMP    WIND        PRES    VSBY  WAVE
                          AIR SEA DIR/SP/G                  HT/PER
                          (F)     (DEG/KT/KT) (MB)    (MI)  (FT/S)
HARRISON CRIB              56     270/ 20/ 23   N/A
BURNHAM HARBOR             55     280/  7/ 19   N/A
CALUMET HARBOR             56     250/  6/ 12 1011.9R
BURNS HARBOR               63     200/ 22/ 29 1011.5R
MICHIGAN CITY              65     180/ 23/ 35   N/A
$$

ILZ025>027-034>036-040-047-049-050-058-095>099-202200-
WEST-CENTRAL ILLINOIS

CITY           SKY/WX    TMP DP  RH WIND       PRES   REMARKS
QUINCY         LGT RAIN  36  34  92 NW14      30.01R WCI  27
GALESBURG*     LGT RAIN  36  36 100 W13       30.00R WCI  27
MACOMB*        LGT RAIN  35  35  99 NW15      30.03R WCI  26
JACKSONVILLE*  HVY RAIN  43  42  97 W10       29.99R
PITTSFIELD*    HVY RAIN  41  41  97 NW9       30.01R
$$

ILZ028>032-037-038-041>044-048-051>054-059>061-202200-
CENTRAL ILLINOIS

CITY           SKY/WX    TMP DP  RH WIND       PRES   REMARKS
PONTIAC        LGT RAIN  50  49  98 SW6       29.95R
BLOOMINGTON    RAIN      52  51  97 SW5       29.95R FOG
DECATUR        LGT RAIN  56  56 100 NW7       29.96R FOG
PEORIA         RAIN      44  42  93 NW12      29.95R FOG
LACON*         HVY RAIN  41  41  99 NW10      29.93R
LINCOLN*       RAIN      49  49 100 CALM      29.94S
SPRINGFIELD    LGT RAIN  51  49  92 CALM      29.96R FOG
TAYLORVILLE    RAIN      55  54  99 NW8       29.96R
$$

ILZ033-039-045-046-055>057-062-063-202200-
EAST-CENTRAL ILLINOIS

CITY           SKY/WX    TMP DP  RH WIND       PRES   REMARKS
CHAMPAIGN      LGT RAIN  65  62  90 S26       29.92R
DANVILLE*      RAIN      66  61  84 S18       29.92R
RANTOUL*       RAIN      65  62  91 W16G29    29.96R
MATTOON        LGT RAIN  68  61  78 S10       29.94S
PARIS*         PTSUNNY   71  62  74 S25G36    29.96F
$$

ILZ079-100>102-202200-
SOUTHWEST ILLINOIS

CITY           SKY/WX    TMP DP  RH WIND       PRES   REMARKS
ALTON          LGT RAIN  61  61 100 N7        29.93S
BELLEVILLE     FAIR      72  62  71 SW16G22   29.91R
CAHOKIA*       PTSUNNY   71  60  68 SW7       29.92R
SPARTA*        CLOUDY    72  63  74 S16G26    29.97R
$$

ILZ064>066-069>071-074>076-080>082-084>086-088>090-092>094-202200-
SOUTH-CENTRAL ILLINOIS

CITY           SKY/WX    TMP DP  RH WIND       PRES   REMARKS
CARBONDALE     CLOUDY    73  62  68 S25G41    30.00R
CAIRO*         CLOUDY    73  62  67 S16G26    30.04S
EFFINGHAM*     CLOUDY    73  62  68 S20G29    29.98R
MT. VERNON     CLOUDY    73  62  68 S25G31    29.98S
CENTRALIA*     CLOUDY    73  63  72 S22G36    29.96R
SALEM*         CLOUDY    74  61  63 S23G37    29.96S
METROPOLIS*    PTSUNNY   74  59  59 S20G28    30.06S
$$

ILZ067-068-072-073-078-083-087-091-202200-
SOUTHEAST ILLINOIS

CITY           SKY/WX    TMP DP  RH WIND       PRES   REMARKS
LAWRENCEVILLE  FAIR      77  58  51 S29       30.00F
FLORA*         PTSUNNY   74  62  65 S22G31    29.99R
FAIRFIELD*     CLOUDY    74  61  63 S14       30.00R
HARRISBURG*    FAIR      75  60  59 S22G28    30.03R
ROBINSON*      CLOUDY    74  59  57 S21G29    29.99S
CARMI*         FAIR      75  61  61 S20G25    30.02S
$$

ABBREVIATIONS USED IN REMARKS
   TC - TEMPERATURE IN CELSIUS
  WCI - WIND CHILL INDEX
   HX - HEAT INDEX
  VSB - VISIBILITY
$$





USA.gov is the U.S. government's official web portal to all federal, state and local government web resources and services.